Waarnemingen

Advertentie
Mijn weer
Loch Glascarnoch, Groot Brittannië (3031): temperatuur & dauwpunt: 13.08.2018 16:00:00 - 19.08.2018 16:00:00 (BST)Loch Glascarnoch, Groot Brittannië (3031): temperatuur -20cm & temperatuur -100cm: 13.08.2018 16:00:00 - 19.08.2018 16:00:00 (BST)Loch Glascarnoch, Groot Brittannië (3031): windsnelheid & windstoten: 13.08.2018 16:00:00 - 19.08.2018 16:00:00 (BST)Loch Glascarnoch, Groot Brittannië (3031): windrichting: 13.08.2018 16:00:00 - 19.08.2018 16:00:00 (BST)Loch Glascarnoch, Groot Brittannië (3031): luchtdruk: 13.08.2018 16:00:00 - 19.08.2018 16:00:00 (BST)Loch Glascarnoch, Groot Brittannië (3031): zicht: 13.08.2018 16:00:00 - 19.08.2018 16:00:00 (BST)Loch Glascarnoch, Groot Brittannië (3031): Zonneschijnduur: 13.08.2018 16:00:00 - 19.08.2018 16:00:00 (BST)Loch Glascarnoch, Groot Brittannië (3031): neerslag: 13.08.2018 16:00:00 - 19.08.2018 16:00:00 (BST)
Datum & Tijd tt [°C] td [°C] tt -20cm [°C] tt -100cm [°C] ff [km/u] ff [kn] fx [km/u] fx [kn] dd ppp [hPa] vv [km] sd [min] rr [mm]
19.08.2018 16:00:00 17,6 10,0 - - 21 11 - - W 1015,4 28 54 0,0
19.08.2018 15:00:00 17,5 8,5 - - 8 4 - - W 1015,1 50 18 0,0
19.08.2018 14:00:00 16,3 8,8 - - 9 5 - - WNW 1015,1 28 6 0,0
19.08.2018 13:00:00 15,7 8,0 - - 5 3 - - W 1015,0 29 0 0,0
19.08.2018 12:00:00 15,3 8,1 - - 8 4 - - WNW 1015,0 35 12 0,0
19.08.2018 11:00:00 14,9 8,2 - - 9 5 - - OZO 1014,5 40 54 0,0
19.08.2018 10:00:00 12,8 8,7 13,7 13,4 8 4 - - WNW 1014,5 30 42 0,0
19.08.2018 09:00:00 10,3 8,4 - - 2 1 - - O 1014,5 40 6 0,0
19.08.2018 08:00:00 9,1 8,2 - - 5 3 - - W 1014,3 45 0 0,0
19.08.2018 07:00:00 7,3 6,9 - - 4 2 - - WZW 1014,1 45 0 0,0
19.08.2018 06:00:00 6,6 6,0 - - 4 2 - - WNW 1014,0 40 0 0,0
19.08.2018 05:00:00 6,5 5,6 - - 4 2 - - W 1014,2 35 0 0,0
19.08.2018 04:00:00 5,8 5,2 - - 5 3 - - WZW 1014,4 50 0 0,0
19.08.2018 03:00:00 6,2 5,6 - - 4 2 - - WZW 1014,6 45 0 0,0
19.08.2018 02:00:00 6,4 5,5 - - 2 1 - - NNW 1014,5 45 0 0,0
19.08.2018 01:00:00 7,2 6,1 - - 4 2 - - Z 1014,3 50 - 0,0
19.08.2018 00:00:00 8,2 6,1 - - 8 4 - - WNW 1014,0 45 0 0,0
18.08.2018 23:00:00 10,8 6,7 - - 11 6 - - W 1013,9 50 0 0,0
18.08.2018 22:00:00 11,5 6,6 - - 18 10 - - WZW 1013,5 45 0 0,0
18.08.2018 21:00:00 11,5 7,2 - - 13 7 - - W 1013,1 35 0 0,0
18.08.2018 20:00:00 12,3 7,4 - - 15 8 - - W 1012,4 40 0 0,0
18.08.2018 19:00:00 12,5 7,4 - - 22 12 - - W 1011,8 30 0 0,0
18.08.2018 18:00:00 13,2 7,2 - - 18 10 - - W 1011,3 40 6 0,0
18.08.2018 17:00:00 13,4 7,6 - - 31 17 52 28 W 1010,5 45 12 0,0
18.08.2018 16:00:00 14,6 8,1 - - 34 18 65 35 W 1009,4 18 42 0,0
18.08.2018 15:00:00 13,7 8,9 - - 50 27 63 34 W 1008,4 35 6 0,0
18.08.2018 14:00:00 13,2 8,2 - - 44 24 65 35 W 1008,6 30 0 0,0
18.08.2018 13:00:00 13,4 8,2 - - 39 21 67 36 W 1008,3 35 6 0,0
18.08.2018 12:00:00 15,0 7,9 - - 44 24 68 37 W 1007,0 18 36 0,0
18.08.2018 11:00:00 13,0 8,2 - - 37 20 68 37 W 1006,9 17 6 0,0
18.08.2018 10:00:00 13,9 8,3 13,7 13,5 44 24 72 39 W 1005,8 16 6 0,0
18.08.2018 09:00:00 13,1 7,1 - - 46 25 70 38 W 1005,1 24 0 0,0
18.08.2018 08:00:00 12,8 6,9 - - 42 23 63 34 W 1004,8 21 0 0,0
18.08.2018 07:00:00 12,9 7,7 - - 34 18 59 32 W 1004,1 17 0 0,0
18.08.2018 06:00:00 12,5 8,5 - - 31 17 52 28 W 1004,0 11 0 0,0
18.08.2018 05:00:00 12,6 7,9 - - 28 15 48 26 WZW 1004,4 15 0 0,0
18.08.2018 04:00:00 12,4 7,6 - - 24 13 57 31 ZW 1004,6 17 0 0,0
18.08.2018 03:00:00 11,9 7,8 - - 39 21 61 33 WZW 1005,0 16 0 0,0
18.08.2018 02:00:00 12,2 7,7 - - 28 15 61 33 W 1005,1 17 0 0,0
18.08.2018 01:00:00 12,6 7,9 - - 31 17 57 31 W 1005,1 16 - 0,0
18.08.2018 00:00:00 12,5 7,5 - - 24 13 46 25 W 1005,3 17 0 0,0
17.08.2018 23:00:00 12,7 8,0 - - 34 18 48 26 W 1005,3 16 0 0,0
17.08.2018 22:00:00 12,8 8,3 - - 29 16 54 29 W 1004,9 19 0 0,0
17.08.2018 21:00:00 13,4 8,6 - - 29 16 50 27 W 1004,5 30 0 0,0
17.08.2018 20:00:00 13,6 9,7 - - 28 15 52 28 WZW 1004,3 40 0 0,0
17.08.2018 19:00:00 14,4 10,9 - - 21 11 - - WZW 1003,7 50 12 0,0
17.08.2018 18:00:00 13,8 12,0 - - 21 11 50 27 WZW 1003,9 18 0 0,2
17.08.2018 17:00:00 14,0 11,9 - - 34 18 57 31 ZW 1003,8 4,6 0 0,0
17.08.2018 16:00:00 14,8 12,2 - - 39 21 63 34 ZW 1003,3 15 18 0,0
17.08.2018 15:00:00 14,7 11,3 - - 21 11 - - ZZW 1004,4 30 0 0,0
17.08.2018 14:00:00 13,0 10,7 - - 9 5 - - O 1005,3 45 0 0,0
17.08.2018 13:00:00 12,9 10,1 - - 8 4 - - ZZW 1005,8 45 0 0,0
17.08.2018 12:00:00 12,6 9,9 - - 13 7 - - ZZW 1006,4 50 0 0,0
17.08.2018 11:00:00 11,8 9,8 - - 24 13 - - ZW 1007,1 11 0 0,2
17.08.2018 10:00:00 11,2 9,5 14,0 13,7 11 6 - - ZW 1007,5 10 0 0,0
17.08.2018 09:00:00 10,4 8,9 - - 8 4 - - ZW 1007,9 11 0 0,2
17.08.2018 08:00:00 10,1 8,3 - - 16 9 - - ZW 1007,9 12 0 0,0
17.08.2018 07:00:00 10,0 7,4 - - 16 9 - - W 1007,8 50 0 0,0
17.08.2018 06:00:00 9,8 8,1 - - 28 15 - - W 1007,6 23 0 0,0
17.08.2018 05:00:00 10,0 7,6 - - 28 15 - - W 1007,2 50 0 0,8
17.08.2018 04:00:00 9,8 8,7 - - 15 8 - - W 1007,0 18 0 0,6
17.08.2018 03:00:00 9,4 8,2 - - 18 10 - - WNW 1006,9 50 0 0,4
17.08.2018 02:00:00 10,7 8,2 - - 18 10 - - WZW 1006,5 40 0 0,0
17.08.2018 01:00:00 10,4 8,1 - - 16 9 - - W 1006,5 18 - 0,0
17.08.2018 00:00:00 9,9 8,9 - - 13 7 - - W 1006,6 40 0 0,4
16.08.2018 23:00:00 10,6 8,3 - - 18 10 - - W 1006,3 16 0 1,2
16.08.2018 22:00:00 10,2 9,0 - - 4 2 - - WZW 1006,2 45 0 1,0
16.08.2018 21:00:00 10,0 8,9 - - 22 12 - - WNW 1005,8 7 0 1,4
16.08.2018 20:00:00 11,3 8,7 - - 18 10 - - WNW 1004,9 45 0 0,2
16.08.2018 19:00:00 11,2 9,1 - - 22 12 - - W 1004,7 20 0 0,4
16.08.2018 18:00:00 12,3 8,9 - - 26 14 - - WZW 1004,0 13 12 0,0
16.08.2018 17:00:00 13,9 8,1 - - 24 13 - - W 1003,5 50 36 0,0
16.08.2018 16:00:00 11,6 9,8 - - 22 12 - - W 1003,8 40 6 0,8
16.08.2018 15:00:00 13,2 9,3 - - 24 13 - - W 1003,0 20 18 0,2
16.08.2018 14:00:00 13,1 10,2 - - 16 9 - - W 1002,6 40 6 0,4
16.08.2018 13:00:00 12,2 9,9 - - 11 6 - - WNW 1002,4 30 12 1,8
16.08.2018 12:00:00 13,0 9,9 - - 15 8 - - ZZW 1001,9 40 6 0,2
16.08.2018 11:00:00 11,2 9,5 - - 13 7 - - ZW 1002,0 14 18 0,6
16.08.2018 10:00:00 12,9 9,1 14,2 13,7 15 8 - - ZW 1001,5 30 24 0,0
16.08.2018 09:00:00 10,8 9,0 - - 16 9 - - ZW 1001,5 8 0 0,0
16.08.2018 08:00:00 10,8 8,2 - - 21 11 - - ZW 1001,3 35 0 0,0
16.08.2018 07:00:00 10,6 8,3 - - 11 6 - - WZW 1001,3 40 0 1,0
16.08.2018 06:00:00 10,6 8,3 - - 16 9 - - ZZW 1001,1 6 0 0,0
16.08.2018 05:00:00 10,8 8,4 - - 18 10 - - ZZW 1001,4 30 0 0,4
16.08.2018 04:00:00 10,7 8,1 - - 16 9 - - ZW 1001,6 5 0 0,0
16.08.2018 03:00:00 10,9 7,4 - - 9 5 - - Z 1002,0 8 0 0,0
16.08.2018 02:00:00 10,0 7,0 - - 4 2 - - Z 1002,5 24 0 0,0
16.08.2018 01:00:00 9,2 6,0 - - 2 1 - - ZW 1002,7 18 - 0,0
16.08.2018 00:00:00 10,6 6,8 - - 4 2 - - NNW 1002,5 17 0 0,0
15.08.2018 23:00:00 11,7 7,1 - - 24 13 - - WZW 1002,2 19 0 0,0
15.08.2018 22:00:00 12,3 8,3 - - 18 10 68 37 W 1001,9 19 0 0,0
15.08.2018 21:00:00 12,4 9,6 - - 26 14 65 35 WZW 1001,2 35 0 0,4
15.08.2018 20:00:00 13,3 9,5 - - 41 22 80 43 ZW 1000,9 40 0 0,0
15.08.2018 19:00:00 13,2 8,8 - - 35 19 63 34 ZW 1001,4 45 18 0,0
15.08.2018 18:00:00 13,8 7,9 - - 39 21 61 33 ZW 1001,5 35 18 0,0
15.08.2018 17:00:00 14,3 7,5 - - 31 17 57 31 ZW 1002,2 50 6 0,0
15.08.2018 16:00:00 14,1 9,8 - - 26 14 65 35 ZW 1003,1 27 0 0,0
15.08.2018 15:00:00 13,0 9,3 - - 34 18 61 33 ZW 1003,8 29 0 0,2
15.08.2018 14:00:00 13,6 9,6 - - 31 17 57 31 ZW 1004,1 30 0 0,0
15.08.2018 13:00:00 14,2 9,7 - - 31 17 48 26 ZW 1004,3 40 0 0,0
15.08.2018 12:00:00 13,8 10,1 - - 21 11 50 27 ZW 1004,5 35 0 0,0
15.08.2018 11:00:00 14,4 11,6 - - 22 12 - - WZW 1004,6 50 6 0,4
15.08.2018 10:00:00 15,2 11,5 14,4 13,7 21 11 - - WZW 1004,5 45 0 0,0
15.08.2018 09:00:00 14,3 12,6 - - 11 6 - - ZZW 1004,5 50 0 0,0
15.08.2018 08:00:00 12,6 12,4 - - 4 2 - - ONO 1004,8 14 0 0,2
15.08.2018 07:00:00 12,1 11,9 - - 9 5 - - O 1005,1 5 0 1,0
15.08.2018 06:00:00 12,3 11,7 - - 15 8 - - O 1005,1 3,6 0 0,2
15.08.2018 05:00:00 13,0 11,4 - - 11 6 - - ZW 1005,3 18 0 0,0
15.08.2018 04:00:00 13,4 11,0 - - 15 8 - - WZW 1006,1 50 0 0,0
15.08.2018 03:00:00 13,0 10,3 - - 11 6 - - W 1006,3 45 0 0,0
15.08.2018 02:00:00 13,3 10,1 - - 18 10 - - W 1007,4 50 0 0,0
15.08.2018 01:00:00 13,1 8,9 - - 5 3 - - NNO 1007,6 50 - 0,0
15.08.2018 00:00:00 13,0 8,6 - - 4 2 - - WZW 1008,3 50 0 0,0
14.08.2018 23:00:00 13,1 8,6 - - 21 11 - - WZW 1008,4 50 0 0,0
14.08.2018 22:00:00 13,0 9,8 - - 18 10 - - WZW 1008,7 45 0 0,0
14.08.2018 21:00:00 13,3 9,1 - - 18 10 - - W 1008,4 50 0 0,0
14.08.2018 20:00:00 14,7 10,0 - - 21 11 - - WZW 1008,2 50 0 0,0
14.08.2018 19:00:00 15,5 11,0 - - 26 14 - - WZW 1007,4 30 6 0,0
14.08.2018 18:00:00 16,5 11,9 - - 24 13 - - WZW 1007,1 40 36 0,0
14.08.2018 17:00:00 17,1 12,8 - - 26 14 46 25 WZW 1007,0 45 24 0,0
14.08.2018 16:00:00 16,7 13,7 - - 26 14 - - WZW 1006,9 6 18 0,0
14.08.2018 15:00:00 17,1 14,3 - - 21 11 - - ZW 1006,9 19 24 0,0
14.08.2018 14:00:00 16,3 14,0 - - 21 11 - - ZW 1007,0 24 0 0,2
14.08.2018 13:00:00 15,5 13,1 - - 15 8 46 25 ZZW 1007,3 50 0 0,0
14.08.2018 12:00:00 14,5 12,6 - - 16 9 - - ZW 1007,8 18 0 0,4
14.08.2018 11:00:00 13,3 12,1 - - 5 3 - - ZZW 1008,1 11 0 1,2
14.08.2018 10:00:00 13,7 11,4 14,2 13,7 9 5 - - ZW 1008,1 45 0 0,0
14.08.2018 09:00:00 13,5 11,3 - - 21 11 - - WZW 1008,1 9 0 0,0
14.08.2018 08:00:00 13,9 11,8 - - 9 5 - - ZW 1007,8 45 0 0,0
14.08.2018 07:00:00 13,0 11,2 - - 8 4 - - ZZW 1008,2 50 0 0,0
14.08.2018 06:00:00 12,6 10,7 - - 8 4 - - WZW 1008,5 50 0 0,0
14.08.2018 05:00:00 13,3 10,9 - - 9 5 - - WZW 1008,6 50 0 0,0
14.08.2018 04:00:00 13,1 10,9 - - 13 7 - - ZZW 1008,6 50 0 0,0
14.08.2018 03:00:00 13,0 10,7 - - 4 2 - - ZO 1008,6 50 0 0,0
14.08.2018 02:00:00 12,6 10,8 - - 8 4 - - ZW 1009,4 50 0 0,0
14.08.2018 01:00:00 12,9 10,7 - - 16 9 - - ZZW 1009,4 50 - 0,0
14.08.2018 00:00:00 13,2 10,5 - - 16 9 - - WZW 1009,5 45 0 0,0
13.08.2018 23:00:00 13,0 11,8 - - 5 3 - - WZW 1009,4 50 0 0,0
13.08.2018 22:00:00 13,5 12,6 - - 4 2 - - W 1009,3 50 0 0,0
13.08.2018 21:00:00 13,5 13,1 - - 4 2 - - ZW 1009,0 50 0 0,0
13.08.2018 20:00:00 13,7 13,4 - - 9 5 - - WNW 1008,7 45 0 0,0
13.08.2018 19:00:00 14,7 13,5 - - 4 2 - - NW 1008,4 40 0 0,0
13.08.2018 18:00:00 15,1 13,5 - - 5 3 - - ONO 1008,3 45 0 0,0
13.08.2018 17:00:00 14,6 13,1 - - 8 4 - - O 1008,7 24 0 0,0
13.08.2018 16:00:00 14,7 13,1 - - 11 6 - - O 1008,7 12 0 0,0

tt = temperatuur
td = dauwpunt
tt -20cm = temperatuur -20cm
tt -100cm = temperatuur -100cm
ff = windsnelheid
fx = windstoten
dd = windrichting
ppp = luchtdruk
vv = zicht
sd = Zonneschijnduur
rr = neerslag

Weerstations in de omgeving